AirNav   Air Wisconsin Up To $57,000 Bonus
 
 293 users online  

60J Odell Williamson Municipal Airport
Ocean Isle Beach, North Carolina, USA

GOING TO OCEAN ISLE BEACH?


FAA INFORMATION EFFECTIVE 25 FEBRUARY 2021

Location

FAA Identifier: 60J
Lat/Long: 33-54-30.6200N 078-26-12.0200W
33-54.510333N 078-26.200333W
33.9085056,-78.4366722
(estimated)
Elevation: 32 ft. / 9.8 m (surveyed)
Variation: 07W (1985)
From city: 1 mile N of OCEAN ISLE BEACH, NC
Time zone: UTC -5 (UTC -4 during Daylight Saving Time)
Zip code: 28470

Airport Operations

Airport use: Open to the public
Activation date: 04/1971
Control tower: no
ARTCC: JACKSONVILLE CENTER
FSS: RALEIGH FLIGHT SERVICE STATION
NOTAMs facility: RDU (NOTAM-D service available)
Attendance: MAY-SEPT 0900-1700, OCT-APR SAT-SUN 0900-1700
MON-FRI ON CALL (910-443-0766)
24 HOUR PILOT LOUNGE - EMERGENCY FREQUENCY ALLOWS ACCESS
Wind indicator: lighted
Segmented circle: no
Lights: ACTVT MIRL RY 06/24 - CTAF AND PAPIS RY 06 AND RY 24 OPERATE CONTINUOUSLY.

Airport Communications

CTAF: 122.9
WX ASOS at CRE (15 nm W): 119.625 (843-361-2802)
WX AWOS-3P at SUT (18 nm E): 124.175 (910-457-1710)

Nearby radio navigation aids

VOR radial/distance  VOR name  Freq  Var
CREr071/15.4GRAND STRAND VORTAC114.4003W
ILMr233/38.6WILMINGTON VORTAC117.0007W

 
NDB name  Hdg/Dist  Freq  Var  ID
CAMP155/25.822707WCPC -.-. .--. -.-.
CAROLINA BEACH252/26.521609WCLB -.-. .-.. -...
HORRY090/34.837008WHYW .... -.-- .--
ELIZABETHTOWN182/37.439808WTGQ - --. --.-

Airport Services

Fuel available: 100LL
24 HOUR SELF SERVICE FUEL WITH CREDIT CARD.
Parking: tiedowns
Airframe service: NONE
Powerplant service: NONE
Bottled oxygen: NONE
Bulk oxygen: NONE

Runway Information

Runway 6/24

Dimensions: 4000 x 75 ft. / 1219 x 23 m
Surface: asphalt, in good condition
Weight bearing capacity: 
Single wheel: 12.0
Runway edge lights: medium intensity
RUNWAY 6  RUNWAY 24
Traffic pattern: leftleft
Displaced threshold: no200 ft.
Markings: nonprecision, in good conditionnonprecision, in good condition
Visual slope indicator: 2-light PAPI on left (3.67 degrees glide path)2-light PAPI on left (3.00 degrees glide path)
Obstructions: 61 ft. tree, 922 ft. from runway, 153 ft. right of centerline, 11:1 slope to clear61 ft. trees, 393 ft. from runway, 142 ft. left of centerline, 3:1 slope to clear
RY 24 APCH SLOPE 6:1 AT DSPLCD THLD.

Airport Ownership and Management from official FAA records

Ownership: Publicly-owned
Owner: TOWN OF OCEAN ISLE BEACH
3 WEST 3RD STREET
OCEAN ISLE BEACH, NC 28469
Phone 910-579-2166
Manager: DAISY IVEY
6070 BEACH DRIVE SW
OCEAN ISLE BEACH, NC 28469
Phone 910-579-6152

Airport Operational Statistics

Aircraft based on the field: 22
Single engine airplanes: 19
Multi engine airplanes: 2
Helicopters: 1
    
Aircraft operations: avg 56/day *
49% transient general aviation
49% local general aviation
2% military
* for 12-month period ending 15 November 2017

Additional Remarks

PARALLEL TWY BEYOND RAMP IS CLOSED.
RY 6 HAS 48 FT MARKED TRANSISTIONAL POWER LINE +/-1000 FT FROM THLD.
HELICOPTER SIGHT-SEEING TOURS OPNS INV OF ARPT
FOR CD CTC MYRTLE BEACH APCH AT 843-477-2727 OR 843-477-2704, WHEN APCH CLSD CTC JACKSONVILLE ARTCC AT 904-845-1592.

Instrument Procedures

There are no published instrument procedures at 60J.

Some nearby airports with instrument procedures:

KCRE - Grand Strand Airport (15 nm W)
KSUT - Cape Fear Regional Jetport/Howie Franklin Field Airport (18 nm E)
5J9 - Twin City Airport (24 nm NW)
KCPC - Columbus County Municipal Airport (26 nm NW)
KMYR - Myrtle Beach International Airport (28 nm SW)
 
Loc | Ops | Rwys | IFR | FBO | Links
Com | Nav | Svcs | Stats | Notes
Area around 60J (Odell Williamson Municipal Airport)
 
Road maps at: MapQuest Bing Google
 
Aerial photo
WARNING: Photo may not be current or correct
Aerial photo of 60J (Odell Williamson Municipal Airport)
Photo by Clif C. Simmons
Photo taken 13-Feb-2009

Do you have a better or more recent aerial photo of Odell Williamson Municipal Airport that you would like to share? If so, please send us your photo.

 
Sectional chart

 
Airport distance calculator
Flying to Odell Williamson Municipal Airport? Find the distance to fly.

From to 60J

Sunrise and sunset
Times for 06-Mar-2021
 Local
(UTC-5)
 Zulu
(UTC)
Morning civil twilight06:1211:12
Sunrise06:3711:37
Sunset18:1323:13
Evening civil twilight18:3823:38

Current date and time
Zulu (UTC)  06-Mar-2021 08:16:48
Local (UTC-5)  06-Mar-2021 03:16:48
 
METAR
KCRE 
15nm W 
060753Z AUTO 02006KT 10SM FEW120 07/01 A3014 RMK AO1 SLP205 T00670011
KSUT 
18nm E 
060755Z AUTO 00000KT 10SM SCT120 06/02 A3015 RMK AO2 T00580021
KCPC 
26nm NW 
060755Z AUTO 01003KT 10SM OVC110 07/M06 A3017 RMK AO2 T00681063
KMYR 
28nm SW 
060756Z AUTO 02010KT 10SM FEW120 08/M02 A3013 RMK AO2 SLP204 T00831017
TAF
KCRE 
15nm W 
060520Z 0606/0706 36003KT P6SM OVC150 FM061100 03007KT P6SM OVC120 FM070000 00000KT P6SM FEW200
NOTAMs
Click for the latest NOTAMs
NOTAMs are issued by the DoD/FAA and will open in a separate window not controlled by AirNav.

 

 
 

FBO, Fuel Providers, and Aircraft Ground Support

  
 Business Name 
 
 Contact 
 
 Services / Description 
 
Fuel Prices
 
Comments
  
Ocean Isle Beach Aviation 910-575-7575
[web site]
[email]
Aviation fuel, Aircraft parking (ramp or tiedown), Hangar leasing / sales, Passenger terminal and lounge, Flight training, Rental cars on site, ...

More info about Ocean Isle Beach Aviation
Phillips 66
100LL
SS $4.80 
 Updated 14-Dec-2020
 
   write
SS=Self service
Update Fuel Prices
 

Would you like to see your business listed on this page?

 If your business provides an interesting product or service to pilots, flight crews, aircraft, or users of the Odell Williamson Municipal Airport, you should consider listing it here.  To start the listing process, click on the button below
 
Add a business
 

Other Pages about Odell Williamson Municipal Airport

Update a link
 
Copyright © AirNav, LLC. All rights reserved. Privacy Policy  Contact